Regional Weather Roundup
Issued by NWS

Home | Current Version | Previous Version | Graphics & Text | Print | Product List | Glossary On
Versions: 1 2 3 4 5 6 7 8 9 10 11 12 13 14 15 16 17 18 19 20 21 22 23 24 25 26 27 28 29 30 31 32 33 34 35 36 37 38 39 40 41 42 43 44 45 46 47 48 49 50
000
ASUS43 KMPX 261301
RWRMN
WEATHER ROUNDUP FOR MINNESOTA
NATIONAL WEATHER SERVICE TWIN CITIES/CHANHASSEN MN
700 AM CST THU FEB 26 2015


NOTE: "FAIR" INDICATES FEW OR NO CLOUDS BELOW 12,000 FEET WITH NO
SIGNIFICANT WEATHER AND/OR OBSTRUCTIONS TO VISIBILITY. N/A MEANS
CURRENT SKY AND/OR WEATHER CONDITIONS ARE NOT AVAILABLE.

MNZ060>063-068>070-261400-
   Twin Cities Metro

CITY           SKY/WX    TMP DP  RH WIND       PRES   REMARKS
TWIN CITIES    FAIR      -3 -12  65 NW9       30.40R WCI -19
ST PAUL        CLEAR     -3 -12  65 N10       30.42R WCI -20
CRYSTAL        CLEAR     -3 -12  65 NW10      30.40R WCI -20
BLAINE         CLEAR     -2 -11  65 NW10      30.39R WCI -19
LAKEVILLE      FAIR      -8 -15  71 NW8       30.38R WCI -23
EDEN PRAIRIE   CLEAR     -4 -12  68 N9        30.39R WCI -20
SOUTH ST PAUL  CLEAR     -2 -12  61 N6        30.40R WCI -14
LAKE ELMO      FAIR      -4 -13  65 N6        30.39R WCI -16
$$
MNZ001>005-007-008-013>017-022>024-027-028-261400-
   Northwest Minnesota

CITY           SKY/WX    TMP DP  RH WIND       PRES   REMARKS
BEMIDJI        PTCLDY   -19 -24  79 W6        30.40R WCI -34
HALLOCK        PTCLDY   -18 -26  69 W2        30.52R
ROSEAU         MOCLDY   -17 -24  70 W6        30.46R WCI -31
WARROAD        MOCLDY   -20 -27  69 W3        30.44S
THIEF RVR FALL PTCLDY   -17 -29  52 NW6       30.47R WCI -31
CROOKSTON      CLEAR    -17 -20  83 NW6       30.54R WCI -31
FOSSTON        PTCLDY   -20 -26  76 CALM      30.45R
DETROIT LAKES  PTCLDY   -13 -17  84 NW6       30.43S WCI -27
MOORHEAD       CLEAR    -13 -17  84 NW6       30.53R WCI -27
PARK RAPIDS    CLEAR    -20 -27  70 W5        30.39R WCI -33
MAHNOMEN       FAIR     -16 -21  78 NW6       30.45R WCI -31
$$
MNZ006-009>011-018-025>026-261400-
   North Central Minnesota

CITY           SKY/WX    TMP DP  RH WIND       PRES   REMARKS
BAUDETTE       MOCLDY   -21 -26  77 W6        30.41R WCI -36
FLAG ISLAND    PTCLDY   -20 -27  69 NW7       30.43R WCI -37
INTL FALLS     MOCLDY   -28 -33  77 W3        30.38R
WASKISH        PTCLDY   -18 -24  76 CALM      30.41R
BIG FORK       PTCLDY   -18 -24  76 CALM      30.38R
LONGVILLE      CLEAR    -15 -18  84 NW3       30.39R
GRAND RAPIDS   CLEAR    -15 -20  76 NW9       30.34R WCI -33
CRANE LAKE     PTCLDY   -35 -42  67 CALM      30.40R
ORR            PTCLDY   -24 -31  69 CALM      30.32R
COOK           PTCLDY   -29 -36  68 CALM      30.35R
WALKER         FAIR     -17 -22  77 W3        30.39R
$$
MNZ012-019>021-037-261400-
   Northeast Minnesota

CITY           SKY/WX    TMP DP  RH WIND       PRES   REMARKS
DULUTH         PTCLDY   -14 -21  71 NW8       30.30R WCI -31
ELY            PTCLDY   -31 -36  75 CALM      30.31
HIBBING        PTCLDY   -15 -21  74 CALM      30.34R
EVELETH        PTCLDY   -15 -22  70 CALM      30.34R
DULUTH HARBOR  PTCLDY    -6 -15  65 CALM      30.41R
TWO HARBORS    PTCLDY    -8 -17  65 NW3       30.31R
SILVER BAY     PTCLDY   -17 -22  76 CALM      30.31R
GRAND MARAIS     N/A     -9 -17  68 NW9       30.38R WCI -26
G MARAIS ARPRT PTCLDY   -20 -27  69 NW3       30.20S
$$
MNZ029>031-032-039>041-046>048-054>057-064-261400-
   West Central Minnesota

CITY           SKY/WX    TMP DP  RH WIND       PRES   REMARKS
FERGUS FALLS   CLEAR    -13 -18  77 N7        30.52S WCI -29
WHEATON        CLEAR    -15 -18  84 NW5       30.52S WCI -27
MORRIS         CLEAR     -9 -17  70 NW9       30.46R WCI -27
ALEXANDRIA     CLEAR    -12 -17  78 NW7       30.41R WCI -27
ELBOW LAKE     FAIR     -12 -16  81 NW7       30.46R WCI -28
WADENA         CLEAR    -15 -20  76 NW8       30.40S WCI -32
GLENWOOD       CLEAR    -11 -17  77 NW9       30.42R WCI -29
APPLETON       CLEAR     -8 -15  71 NW12      30.49R WCI -27
BENSON         CLEAR    -11 -17  77 N7        30.45R WCI -26
ORTONVILLE     CLEAR     -9 -17  70 NW9       30.49R WCI -27
MADISON        CLEAR     -8 -13  77 NW14      30.49R WCI -28
WILLMAR        FAIR     -11 -17  77 NW6       30.44R WCI -25
$$
MNZ033>034-036-042>043-049>051-058-059-261400-
   Central Minnesota

CITY           SKY/WX    TMP DP  RH WIND       PRES   REMARKS
ST CLOUD       CLEAR     -9 -15  75 NW8       30.41R WCI -25
SAUK CENTRE    FAIR     -10 -16  76 NW9       30.42R WCI -28
PAYNESVILLE    CLEAR    -11 -16  78 W5        30.42R WCI -23
AITKIN         CLEAR    -11 -18  70 CALM      30.38R
PINE RIVER     CLEAR    -15 -18  84 NW3       30.42R
BRAINERD       CLEAR    -14 -19  79 NW5       30.40R WCI -26
STAPLES        CLEAR    -17 -22  76 NW7       30.40S WCI -33
LONG PRAIRIE   FAIR     -11 -17  77 NW9       30.41R WCI -29
LITTLE FALLS   CLEAR     -9 -17  70 NW3       30.42R
LITCHFIELD     CLEAR     -8 -13  77 CALM      30.42R
BUFFALO        CLEAR     -6 -13  71 NW9       30.41S WCI -22
MAPLE LAKE     CLEAR     -5 -10  78 NW7       30.42R WCI -19
$$
MNZ037-044-045-052-053-261400-
   East Central Minnesota

CITY           SKY/WX    TMP DP  RH WIND       PRES   REMARKS
PRINCETON      CLEAR     -9 -17  70 W5        30.40R WCI -21
MORA           CLEAR     -8 -15  71 N7        30.41R WCI -22
CAMBRIDGE      CLEAR     -6 -15  65 NW6       30.38R WCI -18
RUSH CITY      MOCLDY    -8 -15  71 NW6       30.39R WCI -21
MOOSE LAKE     CLEAR     -9 -18  64 CALM      30.36R
HINCKLEY       FAIR      -8 -15  71 N9        30.38R WCI -25
CLOQUET        CLEAR    -13 -18  77 NW7       30.33R WCI -29
MCGREGOR       CLEAR    -13 -17  84 NW6       30.38R WCI -27
$$
MNZ071>073-080-081-089-090-097-098-261400-
   Southwest Minnesota

CITY           SKY/WX    TMP DP  RH WIND       PRES   REMARKS
MONTEVIDEO     CLEAR    -11 -15  84 N9        30.47S WCI -29
GRANITE FALLS  CLEAR    -11 -16  78 NW9       30.48S WCI -29
CANBY          CLEAR     -8 -13  77 NW10      30.48R WCI -26
MARSHALL       CLEAR     -9 -17  70 N9        30.45R WCI -27
REDWOOD FALLS  CLEAR     -8 -14  74 NW10      30.45R WCI -26
OLIVIA         CLEAR    -11 -17  77 NW7       30.44R WCI -26
PIPESTONE      CLEAR    -11 -17  77 NW10      30.39R WCI -30
WINDOM         CLEAR     -9 -15  77 NW15      30.39R WCI -31
WORTHINGTON    CLEAR     23 -18  15 NW12      30.38R WCI  12
JACKSON        CLOUDY    -8 -15  71 NW14      30.38R WCI -28
TRACY          CLEAR     -8 -13  78 NW10      30.43R WCI -26
SLAYTON        CLEAR     -9 -15  76 NW10G17   30.39S WCI -28
$$
MNZ065>067-074>077-082>085-091>093-261400-
   South Central Minnesota

CITY           SKY/WX    TMP DP  RH WIND       PRES   REMARKS
MANKATO        CLEAR     -8 -15  71 NW7       30.39R WCI -22
NEW ULM        CLEAR    -11 -17  77 NW9       30.42R WCI -29
ST JAMES       CLEAR     -9 -15  77 NW9       30.42R WCI -27
FAIRMONT       PTCLDY    -8 -13  77 NW15      30.37R WCI -29
GLENCOE        CLEAR     -6 -11  79 NW8       30.41R WCI -22
FARIBAULT      PTCLDY    -8 -15  71 NW6       30.37R WCI -21
OWATONNA       PTCLDY   -13 -18  77 CALM      30.36R
WASECA         PTCLDY    -9 -15  77 NW8       30.38R WCI -26
ALBERT LEA     CLEAR     -6 -15  65 NW6       30.33R WCI -18
$$
MNZ078>079-086>088-094>096-261400-
   Southeast Minnesota

CITY           SKY/WX    TMP DP  RH WIND       PRES   REMARKS
ROCHESTER      CLEAR     -7 -15  68 N12       30.30R WCI -26
RED WING       CLEAR     -4 -15  59 CALM      30.37R
STANTON        CLEAR     -7 -16  65 NW3       30.37R
DODGE CENTER   PTCLDY    -8 -15  71 N8        30.30R WCI -23
WINONA         CLEAR     -6  -9  84 CALM      30.37R
AUSTIN         CLEAR     -6 -15  65 N8        30.32R WCI -21
PRESTON        CLEAR     -6 -14  68 N6        30.29R WCI -19
$$
ABBREVIATIONS USED IN REMARKS
   TC - TEMPERATURES IN CELSIUS
  WCI - WIND CHILL INDEX
   HX - HEAT INDEX
  VSB - VISIBILITY
$$


USA.gov is the U.S. government's official web portal to all federal, state and local government web resources and services.